Weather History for KMOT - June, 2013

Change the Weather History Date:

Tuesday, June 4, 2013

  Actual Average Record
Temperature  
Mean Temperature 49 °F 61 °F  
Max Temperature 51 °F 72 °F 95 °F (1988)
Min Temperature 46 °F 49 °F 27 °F (1917)
Degree Days  
Heating Degree Days 17    
Cooling Degree Days 0 1  
Month to date cooling degree days 0 4  
Year to date cooling degree days 10 20  
Since 1 June cooling degree days 0 4  
Moisture  
Dew Point 46 °F    
Average Humidity 87    
Maximum Humidity 93    
Minimum Humidity 80    
Precipitation  
Precipitation 1.70 in 0.12 in 1.70 in (2013)
Month to date precipitation 2.40 0.47  
Year to date precipitation 10.77 5.86  
Sea Level Pressure  
Sea Level Pressure 30.00 in    
Wind  
Wind Speed 15 mph (NNE)    
Max Wind Speed 22 mph    
Max Gust Speed 31 mph    
Visibility 6 miles    
Events Rain    
T = Trace of Precipitation, MM = Missing Value Source: NWS Daily Summary

Daily Weather History Graph

Daily Weather History Graph

Search for Another Location

Airport or City:

Trip Planner

Search our weather history database for the weather conditions in past years. The results will help you decide how hot, cold, wet, or windy it might be!

Date:

Astronomy

Jun. 04, 2013 Rise Set
Actual Time 5:46 AM CDT 9:40 PM CDT
Civil Twilight 5:06 AM CDT 10:21 PM CDT
Nautical Twilight 4:10 AM CDT 11:17 PM CDT
Astronomical Twilight 2:43 AM CDT 12:45 AM CDT
Moon 3:33 AM CDT (6/4) 5:58 PM CDT (6/4)
Length of Visible Light 17h 15m
Length of Day
15h 53m
Waning Crescent, 14% of the Moon is Illuminated
Jun 4
Waning Crescent
Jun 8
New
Jun 16
First Quarter
Jun 23
Full
Jun 29
Last Quarter

Hourly Weather History & Observations

Time (CDT) Temp. Windchill Dew Point Humidity Pressure Visibility Wind Dir Wind Speed Gust Speed Precip Events Conditions
12:09 AM 46.4 °F 40.4 °F 44.6 °F 93% 29.97 in 10.0 mi NE 13.8 mph - 0.01 in   Overcast
12:16 AM 46.4 °F 40.4 °F 44.6 °F 93% 29.97 in 10.0 mi NNE 13.8 mph - 0.01 in   Overcast
12:29 AM 46.4 °F 40.1 °F 44.6 °F 93% 29.95 in 10.0 mi NNE 15.0 mph 23.0 mph 0.01 in Rain Light Rain
12:45 AM 46.4 °F 40.1 °F 44.6 °F 93% 29.95 in 10.0 mi NE 15.0 mph - 0.01 in Rain Light Rain
12:54 AM 46.9 °F - 44.1 °F 90% 29.98 in 10.0 mi NE 18.4 mph 25.3 mph 0.01 in Rain Light Rain
1:54 AM 46.9 °F - 44.1 °F 90% 29.98 in 10.0 mi NE 16.1 mph 23.0 mph 0.01 in Rain Light Rain
2:54 AM 46.9 °F - 44.1 °F 90% 29.97 in 10.0 mi NE 16.1 mph 24.2 mph 0.00 in   Overcast
3:54 AM 46.9 °F - 44.1 °F 90% 29.97 in 10.0 mi NE 13.8 mph - 0.00 in   Overcast
4:54 AM 46.9 °F - 44.1 °F 90% 29.96 in 10.0 mi NNE 12.7 mph - 0.00 in   Overcast
5:54 AM 46.9 °F - 44.1 °F 90% 29.97 in 10.0 mi NNE 10.4 mph - 0.01 in Rain Light Rain
6:54 AM 46.9 °F - 45.0 °F 93% 29.97 in 10.0 mi NE 10.4 mph - 0.03 in Rain Light Rain
7:24 AM 48.2 °F - 44.6 °F 87% 29.94 in 6.0 mi NE 13.8 mph - 0.04 in Rain Rain
7:52 AM 46.4 °F 40.4 °F 44.6 °F 93% 29.94 in 2.5 mi NE 13.8 mph 21.9 mph 0.12 in Rain Rain
7:54 AM 46.9 °F - 45.0 °F 93% 29.98 in 2.5 mi NE 11.5 mph 21.9 mph 0.13 in Rain Heavy Rain
8:01 AM 46.4 °F 40.4 °F 44.6 °F 93% 29.94 in 3.0 mi NE 13.8 mph 20.7 mph 0.03 in Rain Heavy Rain
8:11 AM 46.4 °F 39.5 °F 44.6 °F 93% 29.94 in 4.0 mi NE 17.3 mph 25.3 mph 0.05 in Rain Rain
8:21 AM 46.4 °F 39.8 °F 44.6 °F 93% 29.94 in 2.0 mi NNE 16.1 mph 21.9 mph 0.07 in Rain Rain
8:35 AM 46.4 °F 39.5 °F 44.6 °F 93% 29.95 in 2.0 mi NE 17.3 mph - 0.11 in Rain Rain
8:54 AM 46.9 °F - 45.0 °F 93% 29.98 in 2.0 mi NE 15.0 mph 21.9 mph 0.16 in Rain Rain
9:01 AM 46.4 °F 40.1 °F 44.6 °F 93% 29.95 in 4.0 mi NE 15.0 mph 21.9 mph 0.01 in Rain Rain
9:54 AM 48.0 °F - 46.0 °F 93% 29.98 in 3.0 mi NE 17.3 mph 21.9 mph 0.05 in Rain Light Rain
10:02 AM 48.2 °F - 46.4 °F 93% 29.95 in 2.5 mi NE 16.1 mph 23.0 mph 0.00 in Rain Light Rain
10:19 AM 48.2 °F - 46.4 °F 93% 29.96 in 4.0 mi NNE 12.7 mph - 0.02 in Rain Rain
10:54 AM 48.0 °F - 46.0 °F 93% 29.99 in 4.0 mi NE 16.1 mph - 0.07 in Rain Rain
11:46 AM 48.2 °F - 46.4 °F 93% 29.97 in 2.0 mi NNE 15.0 mph - 0.12 in Rain Heavy Rain
11:54 AM 48.0 °F - 46.0 °F 93% 30.00 in 2.0 mi NNE 15.0 mph - 0.16 in Rain Heavy Rain
12:07 PM 48.2 °F - 46.4 °F 93% 29.97 in 3.0 mi North 15.0 mph - 0.05 in Rain Heavy Rain
12:14 PM 48.2 °F - 46.4 °F 93% 29.97 in 2.5 mi North 13.8 mph - 0.08 in Rain Heavy Rain
12:33 PM 48.2 °F - 46.4 °F 93% 29.97 in 1.8 mi North 15.0 mph - 0.17 in Rain Heavy Rain
12:42 PM 48.2 °F - 46.4 °F 93% 29.97 in 2.5 mi North 17.3 mph - 0.20 in Rain Rain
12:49 PM 48.2 °F - 46.4 °F 93% 29.98 in 3.0 mi North 16.1 mph - 0.22 in Rain Heavy Rain
12:54 PM 48.0 °F - 46.0 °F 93% 30.01 in 3.0 mi North 17.3 mph - 0.23 in Rain Rain
1:33 PM 48.2 °F - 46.4 °F 93% 29.98 in 2.0 mi North 17.3 mph 23.0 mph 0.13 in Rain Heavy Rain
1:52 PM 48.2 °F - 46.4 °F 93% 29.98 in 3.0 mi North 16.1 mph - 0.21 in Rain Heavy Rain
1:54 PM 48.0 °F - 46.0 °F 93% 30.01 in 3.0 mi North 16.1 mph - 0.22 in Rain Heavy Rain
2:46 PM 48.2 °F - 46.4 °F 93% 29.98 in 2.5 mi North 16.1 mph 25.3 mph 0.22 in Rain Heavy Rain
2:54 PM 48.0 °F - 46.0 °F 93% 30.02 in 2.5 mi North 17.3 mph - 0.27 in Rain Heavy Rain
3:04 PM 48.2 °F - 46.4 °F 93% 29.99 in 2.5 mi North 18.4 mph - 0.06 in Rain Heavy Rain
3:11 PM 48.2 °F - 46.4 °F 93% 29.99 in 2.5 mi North 19.6 mph - 0.08 in Rain Heavy Rain
3:18 PM 48.2 °F - 46.4 °F 93% 29.99 in 4.0 mi North 18.4 mph 24.2 mph 0.10 in Rain Rain
3:54 PM 48.9 °F - 46.9 °F 93% 30.04 in 5.0 mi North 16.1 mph 24.2 mph 0.17 in Rain Rain
4:09 PM 48.2 °F - 46.4 °F 93% 30.00 in 5.0 mi North 15.0 mph - 0.03 in Rain Rain
4:24 PM 48.2 °F - 46.4 °F 93% 30.01 in 4.0 mi North 17.3 mph - 0.07 in Rain Rain
4:43 PM 50.0 °F - 46.4 °F 87% 30.01 in 8.0 mi North 13.8 mph - 0.09 in Rain Rain
4:54 PM 50.0 °F - 46.9 °F 89% 30.04 in 10.0 mi North 16.1 mph - 0.10 in Rain Light Rain
5:08 PM 50.0 °F - 46.4 °F 87% 30.02 in 10.0 mi North 16.1 mph 24.2 mph 0.00 in Rain Light Rain
5:44 PM 48.2 °F - 46.4 °F 93% 30.03 in 10.0 mi North 18.4 mph 24.2 mph 0.01 in Rain Light Rain
5:54 PM 48.9 °F - 46.9 °F 93% 30.06 in 10.0 mi North 18.4 mph 24.2 mph 0.02 in Rain Light Rain
6:08 PM 48.2 °F - 46.4 °F 93% 30.03 in 8.0 mi North 16.1 mph - 0.01 in Rain Light Rain
6:15 PM 48.2 °F - 46.4 °F 93% 30.04 in 10.0 mi North 16.1 mph 23.0 mph 0.02 in Rain Light Rain
6:54 PM 50.0 °F - 46.9 °F 89% 30.06 in 10.0 mi North 18.4 mph - 0.03 in Rain Light Rain
7:54 PM 50.0 °F - 46.0 °F 86% 30.09 in 10.0 mi NNE 18.4 mph 24.2 mph 0.02 in Rain Light Rain
8:35 PM 50.0 °F - 46.4 °F 87% 30.07 in 9.0 mi North 13.8 mph - 0.01 in Rain Light Rain
8:54 PM 50.0 °F - 46.0 °F 86% 30.10 in 6.0 mi North 15.0 mph 25.3 mph 0.01 in Rain Light Rain
9:54 PM 50.0 °F - 46.0 °F 86% 30.11 in 10.0 mi North 11.5 mph - 0.01 in Rain Light Rain
10:54 PM 50.0 °F - 46.0 °F 86% 30.13 in 10.0 mi NNW 10.4 mph - N/A   Overcast
11:54 PM 50.0 °F - 45.0 °F 83% 30.12 in 10.0 mi NNW 9.2 mph - N/A   Overcast